Probability
0 0 0 0 0 0 0 0 0 0 0 0 0 0 0 0 0 0 0 16 77 84 81 71 94 100 100 100 100 100 100 100 100 100 100 100 100 100 100 100 100 100 100
0 0 0 0 0 0 0 0 0 0 0 0 0 0 0 0 0 0 0 0 10 61 68 55 74 90 100 100 100 100 100 100 100 100 100 100 100 100 100 100 100 100 100
0 0 0 0 0 0 0 0 0 0 0 0 0 0 0 0 0 0 0 0 0 3 32 71 61 74 94 100 100 100 100 100 100 100 100 100 100 100 97 97 97 100 100
0 0 0 0 0 0 0 0 0 0 0 0 0 0 0 0 0 0 0 0 0 0 0 29 74 74 81 97 100 100 100 100 100 97 97 97 100 100 100 97 97 94 97
0 0 0 0 0 0 0 0 0 0 0 0 0 0 0 0 0 0 0 0 0 0 0 0 6 58 77 84 97 100 100 100 100 97 97 97 100 100 100 100 97 94 87
0 0 0 0 0 0 0 0 0 0 0 0 0 0 0 0 0 0 0 0 0 0 0 0 0 0 0 71 84 97 100 100 100 97 94 94 97 100 100 100 97 94 61
0 0 0 0 0 0 0 0 0 0 0 0 0 0 0 0 0 0 0 0 0 0 0 0 0 0 0 0 35 84 97 100 100 100 94 90 90 94 97 100 97 84 74
0 0 0 0 0 0 0 0 0 0 0 0 0 0 0 0 0 0 0 0 0 0 0 0 0 0 0 0 0 3 81 97 100 100 97 87 84 87 97 100 100 84 77
0 0 0 0 0 0 0 0 0 0 0 0 0 0 0 0 0 0 0 0 0 0 0 0 0 0 0 0 0 0 3 74 94 100 100 100 100 94 97 100 100 97 87
0 0 0 0 0 0 0 0 0 0 0 0 0 0 0 0 0 0 0 0 0 0 0 0 0 0 0 0 0 0 0 6 77 94 100 100 100 100 97 97 100 100 100
0 0 0 0 0 0 0 0 0 0 0 0 0 0 0 0 0 0 0 0 0 0 0 0 0 0 0 0 0 0 0 0 52 87 97 100 100 100 100 97 97 100 100
0 0 0 0 0 0 0 0 0 0 0 0 0 0 0 0 0 0 0 0 0 0 0 0 0 0 0 0 0 0 0 0 0 45 68 90 100 100 100 100 97 100 100
0 0 0 0 0 0 0 0 0 0 0 0 0 0 0 0 0 0 0 0 0 0 0 0 0 0 0 0 0 0 0 0 0 0 10 23 55 84 100 100 100 100 100
0 0 0 0 0 0 0 0 0 0 0 0 0 0 0 0 0 0 0 0 0 0 0 0 0 0 0 0 0 0 0 0 0 0 0 0 3 13 52 68 84 100 100
0 0 0 0 0 0 0 0 0 0 0 0 0 0 0 0 0 0 0 0 0 0 0 0 0 0 0 0 0 0 0 0 0 0 0 0 0 0 0 6 10 32 39
0 0 0 0 0 0 0 0 0 0 0 0 0 0 0 0 0 0 0 0 0 0 0 0 0 0 0 0 0 0 0 0 0 0 0 0 0 0 0 0 0 0 0
0 0 0 0 0 0 0 0 0 0 0 0 0 0 0 0 0 0 0 0 0 0 0 0 0 0 0 0 0 0 0 0 0 0 0 0 0 0 0 0 0 0 0
0 0 0 0 0 0 0 0 0 0 0 0 0 0 0 0 0 0 0 0 0 0 0 0 0 0 0 0 0 0 0 0 0 0 0 0 0 0 0 0 0 0 0
0 0 0 0 0 0 0 0 0 0 0 0 0 0 0 0 0 0 0 0 0 0 0 0 0 0 0 0 0 0 0 0 0 0 0 0 0 0 0 0 0 0 0
0 0 0 0 0 0 0 0 0 0 0 0 0 0 0 0 0 0 0 0 0 0 0 0 0 0 0 0 0 0 0 0 0 0 0 0 0 0 0 0 0 0 0
0 0 0 0 0 0 0 0 0 0 0 0 0 0 0 0 0 0 0 0 0 0 0 0 0 0 0 0 0 0 0 0 0 0 0 0 0 0 0 0 0 0 0
0 0 0 0 0 0 0 0 0 0 0 0 0 0 0 0 0 0 0 0 0 0 0 0 0 0 0 0 0 0 0 0 0 0 0 0 0 0 0 0 0 0 0
0 0 0 0 0 0 0 0 0 0 0 0 0 0 0 0 0 0 0 0 0 0 0 0 0 0 0 0 0 0 0 0 0 0 0 0 0 0 0 0 0 0 0
0 0 0 0 0 0 0 0 0 0 0 0 0 0 0 0 0 0 0 0 0 0 0 0 0 0 0 0 0 0 0 0 0 0 0 0 0 0 0 0 0 0 0
0 0 0 0 0 0 0 0 0 0 0 0 0 0 0 0 0 0 0 0 0 0 0 0 0 0 0 0 0 0 0 0 0 0 0 0 0 0 0 0 0 0 0
0 0 0 0 0 0 0 0 0 0 0 0 0 0 0 0 0 0 0 0 0 0 0 0 0 0 0 0 0 0 0 0 0 0 0 0 0 0 0 0 0 0 0
Height
5688 5687 5688 5689 5691 5694 5698 5701 5704 5708 5712 5716 5720 5725 5730 5736 5741 5747 5753 5759 5764 5768 5773 5778 5784 5789 5794 5799 5803 5808 5813 5817 5821 5825 5829 5833 5836 5840 5844 5847 5851 5855 5858
5661 5660 5661 5662 5665 5669 5674 5678 5682 5687 5693 5698 5703 5708 5714 5720 5726 5732 5738 5744 5750 5755 5761 5766 5773 5778 5783 5788 5794 5799 5804 5808 5813 5817 5821 5825 5829 5833 5837 5841 5845 5848 5852
5633 5633 5633 5635 5638 5642 5647 5652 5658 5664 5671 5678 5684 5690 5697 5703 5710 5716 5723 5729 5735 5742 5748 5754 5761 5767 5773 5778 5784 5789 5794 5800 5804 5809 5813 5817 5821 5826 5830 5834 5838 5842 5846
5610 5608 5608 5609 5611 5615 5619 5625 5632 5640 5648 5655 5663 5671 5678 5686 5693 5700 5707 5714 5720 5727 5734 5741 5748 5755 5761 5767 5773 5779 5784 5790 5795 5800 5804 5808 5813 5818 5822 5827 5831 5835 5839
5590 5588 5587 5587 5587 5589 5593 5598 5605 5613 5622 5631 5640 5649 5658 5667 5676 5684 5691 5699 5705 5713 5720 5727 5734 5742 5749 5756 5762 5768 5774 5780 5786 5791 5796 5800 5805 5809 5814 5819 5824 5829 5833
5573 5571 5569 5568 5567 5568 5569 5572 5578 5586 5595 5605 5615 5626 5638 5648 5657 5666 5674 5682 5690 5698 5706 5713 5720 5728 5736 5743 5750 5757 5763 5769 5775 5781 5786 5791 5796 5801 5806 5811 5817 5821 5826
5557 5555 5553 5552 5550 5550 5549 5550 5554 5560 5569 5578 5590 5603 5616 5626 5636 5646 5655 5664 5673 5682 5690 5698 5706 5714 5722 5730 5737 5745 5751 5758 5765 5771 5777 5782 5787 5792 5797 5803 5808 5814 5819
5539 5537 5536 5535 5534 5534 5533 5533 5534 5537 5544 5553 5564 5577 5592 5604 5612 5626 5635 5645 5655 5663 5673 5682 5690 5699 5708 5716 5724 5732 5739 5747 5754 5761 5767 5772 5777 5783 5788 5794 5800 5806 5812
5520 5519 5518 5518 5518 5518 5518 5517 5517 5519 5524 5530 5538 5550 5565 5577 5591 5604 5614 5625 5634 5643 5654 5665 5675 5684 5693 5702 5710 5719 5726 5734 5742 5750 5756 5762 5768 5773 5779 5785 5791 5797 5803
5502 5500 5499 5499 5500 5501 5502 5502 5502 5503 5505 5511 5516 5525 5538 5552 5566 5581 5593 5604 5615 5627 5637 5648 5658 5668 5677 5687 5696 5705 5713 5721 5730 5737 5745 5751 5757 5763 5769 5775 5782 5788 5794
5487 5483 5482 5481 5482 5483 5485 5486 5487 5488 5489 5493 5498 5504 5514 5527 5541 5557 5571 5582 5594 5607 5618 5630 5641 5652 5662 5672 5682 5691 5700 5708 5717 5724 5732 5739 5746 5753 5759 5765 5772 5779 5785
5474 5469 5466 5465 5464 5465 5467 5469 5472 5473 5475 5477 5480 5486 5493 5504 5518 5532 5548 5561 5572 5587 5599 5612 5624 5636 5647 5657 5667 5676 5686 5695 5703 5711 5719 5727 5734 5742 5748 5755 5761 5768 5775
5463 5457 5453 5450 5449 5449 5450 5453 5456 5458 5460 5463 5465 5469 5475 5484 5496 5509 5524 5540 5552 5566 5579 5594 5607 5619 5630 5641 5651 5661 5671 5681 5690 5698 5706 5714 5722 5730 5737 5744 5750 5757 5764
5450 5445 5440 5437 5435 5434 5434 5436 5439 5442 5446 5449 5452 5455 5460 5467 5476 5488 5501 5517 5532 5545 5559 5575 5588 5601 5612 5623 5634 5645 5655 5665 5675 5684 5692 5701 5710 5718 5726 5733 5740 5747 5754
5438 5433 5428 5424 5422 5420 5420 5421 5423 5427 5431 5435 5438 5442 5446 5452 5459 5468 5480 5494 5511 5526 5541 5556 5569 5582 5593 5605 5617 5628 5639 5650 5660 5669 5678 5688 5697 5706 5714 5722 5729 5737 5743
5428 5422 5416 5412 5409 5407 5406 5406 5408 5411 5415 5420 5424 5429 5433 5438 5444 5452 5462 5474 5488 5505 5521 5537 5549 5562 5574 5587 5600 5612 5623 5634 5644 5654 5664 5674 5683 5693 5702 5710 5718 5726 5732
5419 5412 5406 5401 5397 5394 5392 5392 5393 5396 5401 5405 5410 5416 5420 5425 5431 5438 5446 5457 5469 5483 5501 5518 5530 5543 5557 5570 5583 5595 5606 5617 5628 5639 5649 5659 5669 5679 5689 5697 5705 5713 5721
5409 5402 5396 5390 5385 5382 5379 5378 5379 5382 5386 5391 5396 5402 5408 5413 5419 5425 5433 5442 5453 5465 5481 5499 5513 5526 5539 5552 5566 5578 5590 5601 5613 5624 5634 5644 5655 5665 5675 5684 5692 5700 5708
5398 5390 5384 5378 5373 5369 5366 5365 5365 5368 5371 5376 5382 5388 5395 5401 5408 5414 5421 5429 5438 5450 5463 5479 5495 5508 5521 5534 5547 5560 5572 5584 5596 5608 5619 5630 5640 5651 5661 5670 5679 5687 5695
5385 5376 5369 5363 5358 5355 5353 5351 5351 5353 5357 5362 5368 5375 5382 5389 5396 5403 5410 5417 5426 5437 5449 5462 5477 5490 5503 5516 5528 5542 5555 5568 5580 5592 5603 5615 5626 5636 5647 5657 5667 5675 5682
5368 5357 5349 5342 5339 5337 5337 5337 5337 5340 5344 5348 5354 5361 5369 5377 5385 5392 5400 5408 5416 5426 5436 5447 5460 5473 5485 5497 5511 5525 5537 5550 5562 5574 5588 5601 5614 5624 5632 5642 5651 5659 5668
5350 5335 5323 5317 5314 5315 5318 5320 5322 5326 5330 5335 5341 5348 5356 5365 5374 5382 5390 5398 5406 5415 5424 5434 5445 5456 5468 5481 5494 5507 5520 5533 5548 5564 5574 5584 5596 5606 5617 5627 5637 5645 5654
5329 5312 5299 5292 5291 5293 5298 5303 5307 5312 5317 5323 5329 5336 5345 5354 5363 5372 5381 5389 5397 5405 5414 5423 5433 5442 5454 5467 5482 5495 5505 5517 5531 5544 5556 5568 5579 5590 5601 5611 5621 5630 5638
5312 5295 5284 5277 5274 5276 5281 5287 5293 5300 5306 5312 5319 5326 5334 5344 5353 5363 5372 5380 5388 5397 5406 5414 5424 5434 5442 5453 5465 5478 5489 5502 5514 5526 5539 5550 5561 5573 5585 5595 5604 5614 5623
5303 5287 5276 5269 5267 5268 5271 5277 5282 5290 5297 5303 5309 5316 5324 5334 5343 5354 5363 5372 5381 5389 5397 5405 5414 5422 5432 5442 5452 5463 5474 5485 5497 5509 5521 5533 5544 5556 5567 5577 5588 5598 5608
5299 5284 5274 5267 5264 5264 5267 5271 5276 5283 5290 5296 5301 5308 5316 5325 5334 5344 5354 5364 5373 5381 5390 5398 5406 5414 5423 5432 5441 5451 5461 5472 5484 5494 5506 5517 5529 5540 5550 5561 5573 5583 5593
Wind_Speed
79 78 78 77 77 75 73 71 69 68 66 65 63 62 62 62 62 62 60 59 58 57 55 53 51 50 48 45 43 42 41 39 37 36 36 37 37 36 36 36 36 35 34
80 80 79 78 79 78 77 76 74 72 70 69 67 65 64 64 63 63 62 61 61 60 59 56 54 53 51 49 46 44 43 42 40 38 37 39 39 38 38 37 37 37 37
73 74 74 74 76 77 79 79 78 77 75 73 72 70 68 66 65 64 63 63 62 61 61 59 57 56 54 52 50 47 46 44 42 41 39 40 40 40 39 38 37 37 37
62 62 63 65 68 72 75 78 80 79 79 78 76 74 72 70 68 66 64 64 62 61 62 62 60 58 57 55 53 51 48 46 45 44 41 41 42 41 41 39 38 37 36
53 53 53 54 57 62 68 74 78 80 81 81 80 78 76 74 72 70 67 66 65 62 61 62 62 61 60 58 56 54 51 49 47 45 44 41 42 43 43 41 40 38 37
50 49 48 48 49 53 59 67 74 79 82 84 84 82 80 78 76 73 71 68 66 65 62 61 63 63 62 61 59 57 54 52 49 47 46 44 42 44 45 44 41 40 38
51 50 48 47 47 47 50 57 66 74 80 84 86 86 83 81 79 77 74 72 69 68 66 63 62 64 64 63 62 59 57 54 52 50 48 46 44 45 47 47 44 42 40
53 52 50 49 47 46 46 48 54 64 74 81 86 88 86 85 84 81 78 75 73 71 69 66 64 64 65 64 63 62 59 57 54 53 50 49 47 46 46 49 47 44 42
53 53 52 50 49 47 45 45 47 52 61 72 82 88 89 88 86 84 83 80 77 75 73 70 68 66 66 66 65 64 62 60 57 55 53 51 49 47 46 50 49 47 45
49 50 50 51 50 49 48 46 45 47 51 59 71 83 89 90 89 87 86 84 82 78 76 74 71 69 68 67 67 66 64 62 60 58 56 54 51 48 47 48 51 50 48
43 44 46 48 49 50 49 47 45 44 46 51 59 71 83 89 90 90 87 86 85 82 78 75 74 72 70 69 68 67 66 64 62 60 59 56 54 51 48 47 48 52 51
40 40 41 43 45 47 48 48 46 44 44 45 51 61 73 84 89 91 90 87 87 85 83 79 76 74 72 71 70 69 68 66 65 63 61 59 56 54 51 48 46 49 51
40 38 38 39 41 44 46 47 46 45 44 43 45 51 62 74 84 89 90 89 88 87 85 82 79 76 74 73 72 71 70 69 67 66 64 61 59 56 53 50 48 48 49
40 39 38 37 37 39 42 45 46 46 44 43 43 45 52 63 75 83 89 90 89 88 87 84 82 80 77 75 74 73 72 70 69 68 67 64 61 59 56 53 51 49 49
39 38 37 36 36 36 38 41 44 46 45 44 43 43 45 52 63 74 83 88 90 89 88 86 84 82 80 77 75 75 73 72 71 70 69 67 64 61 59 56 54 52 50
39 37 36 35 35 35 36 38 41 44 45 45 43 42 42 46 53 63 74 82 87 90 89 87 86 84 83 80 77 76 75 74 73 72 71 69 66 64 61 59 57 55 53
40 38 37 35 34 34 34 35 38 41 44 45 45 43 42 43 46 53 63 72 80 86 89 88 87 86 85 83 80 77 76 75 74 73 71 70 69 66 64 62 60 58 56
42 41 39 37 35 33 33 34 35 38 41 44 45 45 43 43 44 47 54 62 70 79 85 87 86 86 86 85 83 81 78 76 75 74 72 71 69 67 66 64 62 61 59
46 45 43 40 37 35 33 33 34 36 39 42 44 45 45 44 43 45 48 54 61 69 77 83 84 85 86 86 85 84 82 80 77 76 74 72 70 68 66 65 64 63 61
51 49 47 44 41 37 35 33 33 34 36 39 43 45 46 45 44 44 45 48 53 58 66 74 78 81 83 84 86 85 84 83 81 79 77 74 72 69 67 66 65 64 63
56 55 53 49 45 41 37 34 32 33 34 36 40 44 46 46 45 44 44 45 47 50 56 62 68 73 78 81 84 84 83 83 83 82 80 78 74 72 70 68 66 65 64
60 59 54 48 44 40 38 35 33 32 32 34 38 42 45 46 45 44 43 43 44 46 49 53 58 63 69 75 79 80 81 83 83 83 81 79 77 75 72 70 68 67 66
63 56 47 39 33 33 34 34 34 32 30 32 35 40 44 45 45 44 43 43 42 43 44 47 51 55 59 65 71 75 78 79 80 80 81 80 79 76 74 72 70 69 68
61 50 39 29 21 20 25 29 31 30 29 30 33 37 42 44 44 44 43 42 41 41 41 42 44 47 51 55 60 64 68 72 74 76 78 77 78 77 76 73 72 70 69
58 46 35 23 13 9 14 20 25 27 26 27 30 34 39 43 44 44 43 42 40 40 39 39 40 42 45 48 52 55 59 62 65 69 72 72 73 73 74 74 73 72 71
57 45 34 22 10 3 8 13 18 21 23 25 27 32 37 41 44 44 43 42 41 39 38 38 38 39 41 44 47 50 52 55 58 61 63 65 67 69 71 72 70 69 69
Wind_Direction
275 272 268 265 263 261 259 257 254 252 249 247 245 244 242 241 240 238 237 236 234 234 234 233 233 234 235 235 235 236 237 237 238 239 237 234 232 231 229 227 227 227 227
277 273 270 266 262 259 256 254 252 251 249 246 244 243 241 240 239 238 237 236 234 233 233 233 232 233 234 234 234 234 235 237 238 239 239 235 232 230 229 227 226 226 226
280 276 273 268 264 260 256 253 250 248 247 245 244 242 240 239 238 237 236 236 234 232 232 233 232 232 233 234 234 234 234 235 237 238 240 236 231 228 227 225 224 224 224
282 279 275 271 266 261 256 252 249 246 244 243 242 241 240 238 237 237 236 235 235 233 231 231 232 232 233 233 234 234 234 234 236 237 239 238 231 227 225 223 222 221 221
284 281 277 273 267 261 255 251 248 245 242 241 240 239 239 238 237 236 235 235 234 233 231 230 230 231 232 233 234 234 234 233 234 236 238 238 233 227 223 221 220 219 218
285 282 280 276 271 264 257 251 247 243 241 239 237 237 236 237 236 235 235 234 234 233 232 230 230 230 231 232 233 234 234 233 234 235 236 238 236 228 222 219 218 217 217
284 281 279 276 274 270 265 257 249 243 239 237 235 235 234 234 235 235 234 234 233 233 231 230 229 229 229 231 232 233 233 233 234 235 236 238 236 230 223 218 216 216 215
283 279 277 274 272 271 269 265 257 248 241 236 234 232 231 231 232 233 233 232 232 232 231 229 229 229 228 229 231 232 233 233 233 234 236 238 238 233 225 218 215 215 215
283 279 275 272 270 268 267 268 263 256 247 239 234 232 230 229 229 230 231 231 231 230 230 229 228 228 228 228 229 230 232 232 232 233 235 237 239 237 230 220 216 215 215
285 280 275 271 268 266 265 265 265 261 253 244 238 233 230 228 227 227 229 230 230 230 230 229 228 228 228 228 228 228 230 231 232 232 233 235 237 239 235 225 219 217 217
293 285 278 271 267 264 262 262 262 261 257 250 242 236 231 228 227 226 226 228 229 229 229 229 228 228 228 228 227 227 228 230 231 231 232 233 234 236 237 232 224 220 219
300 293 285 277 269 264 261 259 258 259 257 254 247 239 234 230 227 225 224 225 227 227 228 227 227 227 227 227 227 227 227 229 230 231 231 232 232 233 235 236 233 226 222
304 298 291 283 275 267 261 257 255 255 255 253 250 243 237 232 229 227 225 223 225 226 227 226 227 227 227 227 227 227 227 228 229 231 231 231 231 232 233 234 235 232 227
309 303 297 289 280 271 263 257 253 252 251 251 249 246 240 235 231 228 226 224 223 224 226 225 225 226 226 226 226 227 227 228 228 230 231 231 231 231 232 233 234 234 233
314 309 302 294 286 277 267 259 254 250 248 247 247 245 242 237 233 230 228 226 224 222 224 225 225 225 225 226 226 226 227 228 228 228 229 231 231 231 232 233 234 235 236
319 315 310 300 292 282 272 262 254 249 247 245 244 243 241 237 234 232 230 228 226 223 222 223 225 225 225 225 225 226 226 227 228 228 229 230 231 231 232 233 234 235 236
321 317 313 308 298 287 278 267 256 249 245 243 241 240 239 237 234 232 230 229 228 226 223 222 224 225 225 225 225 225 226 227 228 228 229 229 230 231 232 233 234 235 236
321 317 313 309 303 293 282 272 260 250 244 241 239 237 236 235 233 231 229 229 228 227 225 223 223 225 226 226 226 226 226 226 227 228 229 230 230 230 231 233 234 235 236
320 315 311 306 301 295 286 276 264 252 244 239 236 235 234 233 232 230 228 227 227 227 227 225 224 225 226 227 227 227 227 227 228 228 229 230 231 231 231 232 234 235 236
319 314 309 303 297 292 286 277 267 255 245 238 234 232 231 230 229 228 227 225 225 225 226 226 225 225 226 227 228 228 229 229 229 229 230 230 231 232 233 233 234 235 236
320 314 307 300 291 284 279 274 267 257 246 238 232 229 227 227 227 226 225 224 223 223 223 225 225 225 226 227 228 229 230 230 230 230 231 231 232 233 234 234 235 235 237
323 317 308 298 287 276 269 265 262 257 246 237 230 226 224 224 224 224 223 222 222 221 221 222 223 224 225 227 228 229 231 231 232 232 232 232 233 234 235 236 236 237 237
330 325 317 305 288 271 260 255 254 252 245 235 228 223 221 220 220 220 221 221 220 220 220 220 221 221 222 224 226 229 231 232 233 233 234 235 235 235 236 236 237 238 238
340 336 331 319 300 271 252 245 244 244 240 233 226 221 218 216 216 217 217 218 218 218 219 219 220 220 219 220 222 225 228 230 232 233 234 236 236 236 237 237 238 238 239
349 347 345 338 321 276 241 234 235 234 233 229 223 219 215 213 212 213 214 214 214 215 216 216 217 217 217 216 215 216 219 222 225 229 231 233 234 236 237 237 238 239 239
358 357 356 356 352 292 221 220 225 223 223 221 219 216 213 210 209 209 210 210 211 211 212 213 213 213 213 211 211 210 212 215 217 221 224 227 229 231 233 235 236 237 237